Fremont, MI

5:14 PM EST on February 19, 2017 (GMT -0500)
Fremont

Weather History for KFFX - December, 2011

Change the Weather History Date:

Monday, December 5, 2011

  Actual Average (KMKG) Record (KMKG)
Temperature  
Mean Temperature 34 °F -  
Max Temperature 35 °F 38 °F 63 °F (2001)
Min Temperature 32 °F 27 °F 10 °F (1926)
Degree Days  
Heating Degree Days 32    
Moisture  
Dew Point 31 °F    
Average Humidity 93    
Maximum Humidity 100    
Minimum Humidity 80    
Precipitation  
Precipitation 0.00 in - - ()
Sea Level Pressure  
Sea Level Pressure 30.26 in    
Wind  
Wind Speed 6 mph (North)    
Max Wind Speed 9 mph    
Max Gust Speed 16 mph    
Visibility 10 miles    
Events      
Averages and records for this station are not official NWS values.
T = Trace of Precipitation, MM = Missing Value Source: NWS Daily Summary

Daily Weather History Graph

Daily Weather History Graph

Search for Another Location

Airport or City:

Trip Planner

Search our weather history database for the weather conditions in past years. The results will help you decide how hot, cold, wet, or windy it might be!

Date:

Astronomy

Dec. 05, 2011 Rise Set
Actual Time 8:00 AM EST 5:08 PM EST
Civil Twilight 7:28 AM EST 5:40 PM EST
Nautical Twilight 6:52 AM EST 6:16 PM EST
Astronomical Twilight 6:18 AM EST 6:50 PM EST
Moon 2:10 PM EST (12/5) 3:16 AM EST (12/5)
Length of Visible Light 10h 11m
Length of Day
9h 07m
Waxing Gibbous, 79% of the Moon is Illuminated
Dec 5
Waxing Gibbous
Dec 10
Full
Dec 17
Last Quarter
Dec 24
New
Jan 1
First Quarter

Hourly Weather History & Observations

Time (EST) Temp. Windchill Dew Point Humidity Pressure Visibility Wind Dir Wind Speed Gust Speed Precip Events Conditions
12:15 AM 35.6 °F 29.2 °F 35.6 °F 100% 30.21 in 10.0 mi NNW 8.1 mph - N/A   Overcast
12:34 AM 35.6 °F 30.7 °F 33.8 °F 93% 30.22 in 10.0 mi North 5.8 mph - N/A   Overcast
12:55 AM 33.8 °F 27.7 °F 33.8 °F 100% 30.21 in 10.0 mi NNW 6.9 mph - N/A   Overcast
1:15 AM 33.8 °F 27.0 °F 33.8 °F 100% 30.20 in 10.0 mi North 8.1 mph - N/A   Overcast
1:35 AM 33.8 °F 27.7 °F 33.8 °F 100% 30.19 in 10.0 mi North 6.9 mph - N/A   Mostly Cloudy
1:55 AM 33.8 °F 28.6 °F 33.8 °F 100% 30.19 in 10.0 mi North 5.8 mph - N/A   Mostly Cloudy
2:14 AM 32.0 °F 27.5 °F 32.0 °F 100% 30.20 in 10.0 mi North 4.6 mph - N/A   Mostly Cloudy
2:35 AM 32.0 °F 28.7 °F 32.0 °F 100% 30.20 in 10.0 mi NNE 3.5 mph - N/A   Scattered Clouds
2:55 AM 32.0 °F 27.5 °F 32.0 °F 100% 30.22 in 10.0 mi NE 4.6 mph - N/A   Scattered Clouds
3:15 AM 32.0 °F 27.5 °F 32.0 °F 100% 30.22 in 10.0 mi NNE 4.6 mph - N/A   Mostly Cloudy
3:35 AM 33.8 °F 28.6 °F 33.8 °F 100% 30.23 in 10.0 mi ENE 5.8 mph - N/A   Mostly Cloudy
3:55 AM 32.0 °F 27.5 °F 32.0 °F 100% 30.21 in 10.0 mi NE 4.6 mph - N/A   Overcast
4:15 AM 32.0 °F 27.5 °F 32.0 °F 100% 30.21 in 10.0 mi NNE 4.6 mph - N/A   Scattered Clouds
4:35 AM 32.0 °F 28.7 °F 32.0 °F 100% 30.20 in 10.0 mi North 3.5 mph - N/A   Clear
5:14 AM 32.0 °F - 32.0 °F 100% 30.22 in 10.0 mi Calm Calm - N/A   Clear
5:35 AM 32.0 °F - 32.0 °F 100% 30.23 in 10.0 mi Calm Calm - N/A   Clear
6:13 AM 32.0 °F - 32.0 °F 100% 30.25 in 10.0 mi Calm Calm - N/A   Clear
6:34 AM 32.0 °F 27.5 °F 32.0 °F 100% 30.25 in 10.0 mi NNW 4.6 mph - N/A   Clear
6:55 AM 32.0 °F 27.5 °F 32.0 °F 100% 30.26 in 10.0 mi NNW 4.6 mph - N/A   Clear
7:14 AM 32.0 °F 27.5 °F 32.0 °F 100% 30.27 in 10.0 mi North 4.6 mph - N/A   Clear
7:35 AM 32.0 °F 27.5 °F 32.0 °F 100% 30.28 in 10.0 mi North 4.6 mph - N/A   Clear
7:55 AM 32.0 °F 27.5 °F 32.0 °F 100% 30.28 in 10.0 mi North 4.6 mph - N/A   Clear
8:14 AM 32.0 °F 26.4 °F 32.0 °F 100% 30.28 in 10.0 mi North 5.8 mph - N/A   Clear
8:35 AM 32.0 °F 27.5 °F 32.0 °F 100% 30.28 in 10.0 mi NNE 4.6 mph - N/A   Mostly Cloudy
8:55 AM 32.0 °F 27.5 °F 32.0 °F 100% 30.26 in 10.0 mi NNE 4.6 mph - N/A   Scattered Clouds
9:14 AM 32.0 °F 25.6 °F 32.0 °F 100% 30.26 in 10.0 mi NNE 6.9 mph - N/A   Clear
9:35 AM 32.0 °F 26.4 °F 32.0 °F 100% 30.26 in 10.0 mi NNE 5.8 mph - N/A   Clear
9:54 AM 32.0 °F 26.4 °F 32.0 °F 100% 30.29 in 10.0 mi NNE 5.8 mph - N/A   Clear
10:15 AM 32.0 °F 28.7 °F 32.0 °F 100% 30.30 in 10.0 mi North 3.5 mph - N/A   Mostly Cloudy
10:35 AM 33.8 °F 30.8 °F 32.0 °F 93% 30.30 in 10.0 mi North 3.5 mph - N/A   Overcast
10:54 AM 33.8 °F 27.7 °F 32.0 °F 93% 30.30 in 10.0 mi NNE 6.9 mph - N/A   Overcast
11:15 AM 33.8 °F 28.6 °F 32.0 °F 93% 30.29 in 10.0 mi NNE 5.8 mph - N/A   Overcast
11:35 AM 33.8 °F 27.7 °F 32.0 °F 93% 30.28 in 10.0 mi NNE 6.9 mph - N/A   Mostly Cloudy
11:54 AM 33.8 °F 28.6 °F 32.0 °F 93% 30.28 in 10.0 mi North 5.8 mph - N/A   Overcast
12:15 PM 33.8 °F 27.7 °F 32.0 °F 93% 30.29 in 10.0 mi North 6.9 mph - N/A   Overcast
12:35 PM 33.8 °F 27.0 °F 32.0 °F 93% 30.28 in 10.0 mi North 8.1 mph - N/A   Overcast
12:54 PM 33.8 °F 26.4 °F 32.0 °F 93% 30.27 in 10.0 mi North 9.2 mph 16.1 mph N/A   Mostly Cloudy
1:15 PM 33.8 °F 27.0 °F 32.0 °F 93% 30.26 in 10.0 mi North 8.1 mph - N/A   Scattered Clouds
1:34 PM 33.8 °F 26.4 °F 32.0 °F 93% 30.26 in 10.0 mi North 9.2 mph - N/A   Scattered Clouds
1:54 PM 33.8 °F 27.0 °F 30.2 °F 87% 30.27 in 10.0 mi North 8.1 mph - N/A   Mostly Cloudy
2:15 PM 33.8 °F 27.7 °F 30.2 °F 87% 30.26 in 10.0 mi North 6.9 mph - N/A   Scattered Clouds
2:34 PM 33.8 °F 29.6 °F 30.2 °F 87% 30.26 in 10.0 mi North 4.6 mph - N/A   Clear
2:55 PM 33.8 °F 28.6 °F 30.2 °F 87% 30.26 in 10.0 mi North 5.8 mph - N/A   Scattered Clouds
3:14 PM 33.8 °F 27.7 °F 30.2 °F 87% 30.25 in 10.0 mi North 6.9 mph - N/A   Scattered Clouds
3:35 PM 33.8 °F 28.6 °F 30.2 °F 87% 30.25 in 10.0 mi North 5.8 mph - N/A   Mostly Cloudy
4:15 PM 33.8 °F 26.4 °F 30.2 °F 87% 30.25 in 10.0 mi NNW 9.2 mph - N/A   Mostly Cloudy
4:34 PM 33.8 °F 26.4 °F 28.4 °F 81% 30.27 in 10.0 mi North 9.2 mph - N/A   Scattered Clouds
4:55 PM 33.8 °F 27.7 °F 30.2 °F 87% 30.26 in 10.0 mi North 6.9 mph - N/A   Scattered Clouds
5:14 PM 32.0 °F 26.4 °F 28.4 °F 87% 30.26 in 10.0 mi North 5.8 mph - N/A   Clear
5:35 PM 32.0 °F 26.4 °F 28.4 °F 87% 30.27 in 10.0 mi North 5.8 mph - N/A   Clear
5:54 PM 32.0 °F 26.4 °F 28.4 °F 87% 30.27 in 10.0 mi North 5.8 mph - N/A   Scattered Clouds
6:15 PM 32.0 °F 25.6 °F 28.4 °F 87% 30.28 in 10.0 mi North 6.9 mph - N/A   Scattered Clouds
6:54 PM 32.0 °F 26.4 °F 26.6 °F 80% 30.29 in 10.0 mi North 5.8 mph - N/A   Clear
7:14 PM 32.0 °F 24.8 °F 26.6 °F 80% 30.30 in 10.0 mi North 8.1 mph - N/A   Clear
7:35 PM 32.0 °F 26.4 °F 26.6 °F 80% 30.30 in 10.0 mi North 5.8 mph - N/A   Mostly Cloudy
7:55 PM 32.0 °F 27.5 °F 26.6 °F 80% 30.30 in 10.0 mi North 4.6 mph - N/A   Overcast
8:15 PM 32.0 °F 25.6 °F 26.6 °F 80% 30.32 in 10.0 mi NNW 6.9 mph - N/A   Mostly Cloudy
8:35 PM 32.0 °F 26.4 °F 26.6 °F 80% 30.32 in 10.0 mi NNW 5.8 mph - N/A   Overcast
8:54 PM 32.0 °F 26.4 °F 26.6 °F 80% 30.32 in 10.0 mi North 5.8 mph - N/A   Overcast
9:15 PM 32.0 °F 26.4 °F 26.6 °F 80% 30.32 in 10.0 mi NNW 5.8 mph - N/A   Overcast
9:35 PM 32.0 °F 26.4 °F 26.6 °F 80% 30.32 in 10.0 mi NNW 5.8 mph - N/A   Overcast
9:55 PM 32.0 °F 24.8 °F 26.6 °F 80% 30.32 in 10.0 mi NNW 8.1 mph - N/A   Overcast
10:35 PM 32.0 °F 24.2 °F 24.8 °F 75% 30.31 in 10.0 mi North 9.2 mph - N/A   Overcast
10:54 PM 30.2 °F 22.6 °F 23.0 °F 75% 30.31 in 10.0 mi NNW 8.1 mph - N/A   Overcast
11:15 PM 30.2 °F 22.6 °F 23.0 °F 75% 30.30 in 10.0 mi NNW 8.1 mph - N/A   Overcast
11:35 PM 30.2 °F 24.3 °F 23.0 °F 75% 30.30 in 10.0 mi NNW 5.8 mph - N/A   Overcast
11:54 PM 30.2 °F 24.3 °F 23.0 °F 75% 30.30 in 10.0 mi NNW 5.8 mph - N/A   Overcast